Weather History for KPRG - October, 2012

Change the Weather History Date:

Wednesday, October 3, 2012

  Actual Average (KHUF) Record (KHUF)
Temperature  
Mean Temperature 64 °F 59 °F  
Max Temperature 74 °F 71 °F 89 °F (1971)
Min Temperature 56 °F 46 °F 28 °F (1974)
Degree Days  
Heating Degree Days 0 7  
Month to date heating degree days 21  
Since 1 July heating degree days 99  
Cooling Degree Days 0 1  
Month to date cooling degree days 3  
Year to date cooling degree days 981  
Growing Degree Days 14 (Base 50)    
Moisture  
Dew Point 54 °F    
Average Humidity 80    
Maximum Humidity 98    
Minimum Humidity 43    
Precipitation  
Precipitation 0.01 in 0.12 in 1.41 in (2014)
Month to date precipitation 0.33  
Year to date precipitation 35.03  
Sea Level Pressure  
Sea Level Pressure 29.99 in    
Wind  
Wind Speed 8 mph (South)    
Max Wind Speed 15 mph    
Max Gust Speed 20 mph    
Visibility 9 miles    
Events Rain    
T = Trace of Precipitation, MM = Missing Value Source: NWS Daily Summary

Daily Weather History Graph

Daily Weather History Graph

Search for Another Location

Airport or City:

Trip Planner

Search our weather history database for the weather conditions in past years. The results will help you decide how hot, cold, wet, or windy it might be!

Date:

Astronomy

Oct. 03, 2012 Rise Set
Actual Time 6:49 AM CDT 6:29 PM CDT
Civil Twilight 6:22 AM CDT 6:55 PM CDT
Nautical Twilight 5:51 AM CDT 7:27 PM CDT
Astronomical Twilight 5:19 AM CDT 7:58 PM CDT
Moon 8:21 PM CDT (10/3) 10:11 AM CDT (10/3)
Length of Visible Light 12h 33m
Length of Day
11h 39m
Waning Gibbous, 88% of the Moon is Illuminated
Oct 3
Waning Gibbous
Oct 8
Last Quarter
Oct 15
New
Oct 21
First Quarter
Oct 29
Full

Hourly Weather History & Observations

Time (CDT) Temp. Dew Point Humidity Pressure Visibility Wind Dir Wind Speed Gust Speed Precip Events Conditions
12:15 AM 57.7 °F 57.2 °F 98% 29.88 in 1.8 mi SSE 6.9 mph - N/A Rain Rain
12:35 AM 57.6 °F 57.0 °F 98% 29.87 in 3.0 mi SSE 8.1 mph - N/A   Light Drizzle
12:55 AM 57.2 °F 56.5 °F 97% 29.87 in 10.0 mi SSE 6.9 mph - N/A   Overcast
1:15 AM 57.2 °F 56.5 °F 97% 29.88 in 10.0 mi SSE 6.9 mph - N/A   Overcast
1:35 AM 57.2 °F 56.3 °F 97% 29.89 in 10.0 mi SSE 6.9 mph - N/A   Overcast
1:55 AM 57.2 °F 56.3 °F 97% 29.89 in 10.0 mi SSE 6.9 mph - N/A   Overcast
2:15 AM 56.8 °F 55.9 °F 97% 29.90 in 5.0 mi SSE 5.8 mph - N/A   Overcast
3:01 AM 57.2 °F 55.4 °F 94% 29.90 in 7.0 mi South 5.8 mph - N/A   Overcast
3:22 AM 57.2 °F 55.4 °F 94% 29.91 in 7.0 mi South 6.9 mph - N/A   Overcast
3:45 AM 57.2 °F 55.4 °F 94% 29.91 in 10.0 mi South 6.9 mph - N/A   Overcast
4:02 AM 57.2 °F 55.4 °F 94% 29.91 in 7.0 mi South 8.1 mph - N/A   Overcast
4:15 AM 57.0 °F 56.3 °F 97% 29.91 in 5.0 mi South 8.1 mph - N/A   Overcast
4:35 AM 56.8 °F 56.3 °F 98% 29.92 in 7.0 mi South 5.8 mph - N/A   Overcast
4:55 AM 56.7 °F 55.9 °F 97% 29.93 in 5.0 mi South 8.1 mph - N/A   Overcast
5:15 AM 56.5 °F 55.8 °F 97% 29.93 in 5.0 mi South 6.9 mph - N/A   Overcast
5:35 AM 57.2 °F 55.4 °F 94% 29.94 in 7.0 mi South 5.8 mph - N/A   Overcast
5:55 AM 56.7 °F 55.9 °F 97% 29.95 in 7.0 mi SSW 6.9 mph - N/A   Overcast
6:15 AM 56.7 °F 55.9 °F 97% 29.96 in 10.0 mi SSW 9.2 mph - N/A   Overcast
6:35 AM 57.0 °F 56.3 °F 97% 29.96 in 7.0 mi SSW 8.1 mph - N/A   Overcast
6:55 AM 57.2 °F 56.3 °F 97% 29.97 in 7.0 mi SSW 8.1 mph - N/A   Overcast
7:15 AM 57.2 °F 56.3 °F 97% 29.98 in 7.0 mi SW 9.2 mph - N/A   Overcast
7:35 AM 57.2 °F 56.3 °F 97% 29.99 in 7.0 mi SW 11.5 mph - N/A   Overcast
7:55 AM 57.0 °F 55.9 °F 96% 29.99 in 7.0 mi WSW 11.5 mph - N/A   Overcast
8:15 AM 57.2 °F 55.9 °F 96% 29.99 in 7.0 mi SW 11.5 mph 16.1 mph N/A Rain Light Rain
8:35 AM 57.2 °F 55.8 °F 95% 30.00 in 10.0 mi SW 10.4 mph - N/A   Overcast
8:55 AM 57.6 °F 56.1 °F 95% 30.01 in 10.0 mi SW 11.5 mph - N/A   Overcast
9:15 AM 58.1 °F 56.3 °F 94% 30.02 in 10.0 mi SW 10.4 mph - N/A   Overcast
9:35 AM 58.3 °F 55.9 °F 92% 30.02 in 10.0 mi SW 10.4 mph - N/A   Overcast
9:55 AM 58.5 °F 56.1 °F 92% 30.03 in 10.0 mi SSW 9.2 mph - N/A   Overcast
10:15 AM 58.6 °F 56.3 °F 92% 30.03 in 10.0 mi SSW 8.1 mph - N/A   Overcast
10:35 AM 59.0 °F 56.3 °F 91% 30.03 in 10.0 mi South 9.2 mph - N/A   Overcast
10:55 AM 59.5 °F 56.5 °F 90% 30.03 in 10.0 mi South 6.9 mph - N/A   Overcast
11:15 AM 60.8 °F 57.2 °F 88% 30.03 in 10.0 mi SSW 8.1 mph - N/A   Overcast
11:35 AM 62.6 °F 57.6 °F 84% 30.03 in 10.0 mi SSW 9.2 mph - N/A   Overcast
11:55 AM 64.2 °F 56.8 °F 77% 30.03 in 10.0 mi SW 6.9 mph - N/A   Overcast
12:15 PM 64.8 °F 56.7 °F 75% 30.03 in 10.0 mi SSW 9.2 mph - N/A   Overcast
12:35 PM 66.2 °F 57.2 °F 73% 30.02 in 10.0 mi South 9.2 mph - N/A   Overcast
12:55 PM 65.8 °F 56.7 °F 72% 30.02 in 10.0 mi South 9.2 mph - N/A   Overcast
1:15 PM 67.1 °F 56.5 °F 69% 30.01 in 10.0 mi South 6.9 mph - N/A   Overcast
1:35 PM 67.8 °F 55.0 °F 64% 30.00 in 10.0 mi South 9.2 mph - N/A   Overcast
1:55 PM 70.5 °F 54.7 °F 57% 30.00 in 10.0 mi SSW 9.2 mph 19.6 mph N/A   Scattered Clouds
2:15 PM 72.3 °F 54.3 °F 53% 30.00 in 10.0 mi South 15.0 mph 19.6 mph N/A   Clear
2:35 PM 72.5 °F 52.3 °F 49% 30.00 in 10.0 mi SSW 13.8 mph 19.6 mph N/A   Scattered Clouds
2:55 PM 73.2 °F 51.3 °F 46% 30.00 in 10.0 mi South 15.0 mph 19.6 mph N/A   Scattered Clouds
3:15 PM 71.6 °F 51.4 °F 49% 30.00 in 10.0 mi South 11.5 mph - N/A   Mostly Cloudy
3:35 PM 72.1 °F 50.7 °F 47% 29.99 in 10.0 mi SSW 8.1 mph - N/A   Mostly Cloudy
3:55 PM 72.3 °F 50.0 °F 45% 30.00 in 10.0 mi SW 11.5 mph 18.4 mph N/A   Overcast
4:15 PM 72.9 °F 48.9 °F 43% 30.00 in 10.0 mi SSW 10.4 mph - N/A   Mostly Cloudy
4:35 PM 72.1 °F 50.4 °F 46% 30.00 in 10.0 mi SSW 10.4 mph - N/A   Mostly Cloudy
4:55 PM 72.0 °F 50.0 °F 46% 30.00 in 10.0 mi South 11.5 mph 17.3 mph N/A   Mostly Cloudy
5:15 PM 72.1 °F 50.9 °F 47% 30.01 in 10.0 mi South 9.2 mph - N/A   Scattered Clouds
5:35 PM 71.6 °F 51.8 °F 50% 30.01 in 10.0 mi South 10.4 mph - N/A   Clear
5:55 PM 68.7 °F 51.8 °F 55% 30.02 in 10.0 mi South 6.9 mph - N/A   Clear
6:15 PM 67.3 °F 52.0 °F 58% 30.02 in 7.0 mi South 5.8 mph - N/A   Scattered Clouds
6:35 PM 63.3 °F 52.2 °F 67% 30.02 in 10.0 mi SSE 5.8 mph - N/A   Clear
6:55 PM 59.9 °F 52.3 °F 76% 30.02 in 10.0 mi South 5.8 mph - N/A   Clear
7:15 PM 58.5 °F 51.8 °F 79% 30.03 in 10.0 mi South 4.6 mph - N/A   Clear
7:35 PM 57.2 °F 51.1 °F 80% 30.04 in 10.0 mi South 6.9 mph - N/A   Clear
7:55 PM 56.7 °F 50.9 °F 81% 30.04 in 10.0 mi SSE 6.9 mph - N/A   Clear
8:15 PM 56.3 °F 50.9 °F 82% 30.05 in 10.0 mi South 4.6 mph - N/A   Scattered Clouds
8:35 PM 57.2 °F 51.4 °F 81% 30.05 in 10.0 mi SSE 6.9 mph - N/A   Scattered Clouds
8:55 PM 57.6 °F 51.8 °F 81% 30.06 in 10.0 mi SSE 5.8 mph - N/A   Scattered Clouds
9:15 PM 57.0 °F 51.3 °F 81% 30.06 in 10.0 mi South 5.8 mph - N/A   Clear
9:35 PM 57.7 °F 52.2 °F 82% 30.06 in 10.0 mi South 6.9 mph - N/A   Clear
9:55 PM 58.1 °F 52.7 °F 82% 30.07 in 10.0 mi South 6.9 mph - N/A   Clear
10:15 PM 58.6 °F 53.1 °F 82% 30.07 in 10.0 mi South 6.9 mph - N/A   Clear
10:35 PM 59.7 °F 53.4 °F 80% 30.07 in 10.0 mi SSE 4.6 mph - N/A   Scattered Clouds
10:55 PM 59.9 °F 54.0 °F 81% 30.07 in 10.0 mi SSE 8.1 mph - N/A   Overcast
11:15 PM 61.0 °F 54.3 °F 79% 30.09 in 10.0 mi SSW 9.2 mph - N/A   Overcast
11:35 PM 61.9 °F 54.5 °F 77% 30.09 in 10.0 mi SSW 12.7 mph - N/A   Overcast
11:55 PM 61.0 °F 54.5 °F 79% 30.10 in 10.0 mi SSW 8.1 mph - N/A   Mostly Cloudy